,,,PA_Meas_PMT16A,,PR_Meas_QMR101_102,,RH_Meas_QMH101,,SR_Meas_QMS101,,TA_Meas_QMH101,,GenWind,,GenWind,
date,time,status,PA,status,PR,status,RH,status,SR,status,TA,status,DirAvg,status,SpdAvg,
2010-11-27, 00:00:04,VALID,1002.15,VALID,0,VALID,86.5725,VALID,0,VALID,26.4102,VALID,40,VALID,1.06797,
2010-11-27, 00:01:04,VALID,1002.14,VALID,0,VALID,86.0614,VALID,0,VALID,26.4082,VALID,17,VALID,1.22187,
2010-11-27, 00:02:04,VALID,1002.14,VALID,0,VALID,86.3589,VALID,0,VALID,26.4687,VALID,34,VALID,0.916797,
2010-11-27, 00:03:04,VALID,1002.11,VALID,0,VALID,85.8325,VALID,0,VALID,26.4277,VALID,26,VALID,1.63984,
2010-11-27, 00:04:04,VALID,1002.13,VALID,0,VALID,85.6494,VALID,0,VALID,26.4492,VALID,16,VALID,2.11719,
2010-11-27, 00:05:04,VALID,1002.09,VALID,0,VALID,85.4511,VALID,0,VALID,26.5271,VALID,24,VALID,1.35742,
2010-11-27, 00:06:04,VALID,1002.07,VALID,0,VALID,85.6571,VALID,0,VALID,26.5251,VALID,8,VALID,0.771875,
2010-11-27, 00:07:04,VALID,1002.09,VALID,0,VALID,85.5045,VALID,0,VALID,26.4861,VALID,12,VALID,1.42852,
2010-11-27, 00:08:04,VALID,1002.07,VALID,0,VALID,86.0233,VALID,0,VALID,26.4667,VALID,44,VALID,0.946484,
2010-11-27, 00:09:04,VALID,1002.08,VALID,0,VALID,85.7562,VALID,0,VALID,26.4667,VALID,28,VALID,1.04297,
2010-11-27, 00:10:04,VALID,1002.11,VALID,0,VALID,85.9012,VALID,0,VALID,26.4667,VALID,25,VALID,1.02344,
2010-11-27, 00:11:04,VALID,1002.07,VALID,0,VALID,86.4581,VALID,0,VALID,26.4102,VALID,31,VALID,1.0457,
2010-11-27, 00:12:04,VALID,1002.07,VALID,0,VALID,86.4734,VALID,0,VALID,26.3518,VALID,25,VALID,1.50352,
2010-11-27, 00:13:04,VALID,1002.04,VALID,0,VALID,86.8319,VALID,0,VALID,26.2933,VALID,28,VALID,1.29023,
2010-11-27, 00:14:04,VALID,1002.03,VALID,0,VALID,87.5033,VALID,0,VALID,26.2544,VALID,37,VALID,0.798437,
2010-11-27, 00:15:04,VALID,1002.04,VALID,0,VALID,87.2744,VALID,0,VALID,26.1959,VALID,32,VALID,1.31289,
2010-11-27, 00:16:04,VALID,1002.03,VALID,0,VALID,87.3583,VALID,0,VALID,26.2349,VALID,22,VALID,1.13242,
2010-11-27, 00:17:04,VALID,1002,VALID,0,VALID,87.2668,VALID,0,VALID,26.2739,VALID,29,VALID,0.766406,
2010-11-27, 00:18:04,VALID,1002,VALID,0,VALID,87.282,VALID,0,VALID,26.2544,VALID,31,VALID,1.10195,
2010-11-27, 00:19:04,VALID,1001.96,VALID,0,VALID,86.7327,VALID,0,VALID,26.2933,VALID,28,VALID,1.52539,
2010-11-27, 00:20:04,VALID,1001.97,VALID,0,VALID,86.4886,VALID,0,VALID,26.3713,VALID,21,VALID,1.18594,
2010-11-27, 00:21:04,VALID,1001.96,VALID,0,VALID,85.9622,VALID,0,VALID,26.4492,VALID,20,VALID,1.17813,
2010-11-27, 00:22:04,VALID,1001.97,VALID,0,VALID,86.3437,VALID,0,VALID,26.4297,VALID,22,VALID,0.966797,
2010-11-27, 00:23:04,VALID,1001.95,VALID,0,VALID,86.5115,VALID,0,VALID,26.4492,VALID,35,VALID,0.678516,
2010-11-27, 00:24:04,VALID,1001.97,VALID,0,VALID,86.3894,VALID,0,VALID,26.3108,VALID,34,VALID,1.58672,
2010-11-27, 00:25:04,VALID,1001.96,VALID,0,VALID,87.16,VALID,0,VALID,26.3108,VALID,348,VALID,0.585547,
2010-11-27, 00:26:04,VALID,1001.98,VALID,0,VALID,86.1453,VALID,0,VALID,26.3108,VALID,25,VALID,2.31289,
2010-11-27, 00:27:04,VALID,1001.91,VALID,0,VALID,85.2604,VALID,0,VALID,26.4277,VALID,25,VALID,2.11055,
2010-11-27, 00:28:04,VALID,1001.94,VALID,0,VALID,84.9171,VALID,0,VALID,26.5251,VALID,37,VALID,1.16484,
2010-11-27, 00:29:04,VALID,1001.91,VALID,0,VALID,85.4282,VALID,0,VALID,26.5056,VALID,8,VALID,0.577344,
2010-11-27, 00:30:04,VALID,1001.9,VALID,0,VALID,86.0995,VALID,0,VALID,26.4277,VALID,13,VALID,0.379687,
2010-11-27, 00:31:04,VALID,1001.91,VALID,0,VALID,86.542,VALID,0.100563,VALID,26.3887,VALID,12,VALID,0.845312,
2010-11-27, 00:32:04,VALID,1001.9,VALID,0,VALID,87.0913,VALID,0,VALID,26.2524,VALID,26,VALID,0.595312,
2010-11-27, 00:33:04,VALID,1001.88,VALID,0,VALID,87.1905,VALID,0,VALID,26.2134,VALID,34,VALID,1.08281,
2010-11-27, 00:34:04,VALID,1001.87,VALID,0,VALID,86.3818,VALID,0,VALID,26.2114,VALID,11,VALID,1.79297,
2010-11-27, 00:35:04,VALID,1001.85,VALID,0,VALID,86.2598,VALID,0,VALID,26.2894,VALID,23,VALID,1.45859,
2010-11-27, 00:36:04,VALID,1001.83,VALID,0,VALID,85.596,VALID,0,VALID,26.3673,VALID,17,VALID,1.03867,
2010-11-27, 00:37:04,VALID,1001.79,VALID,0,VALID,85.8631,VALID,0.100563,VALID,26.3887,VALID,36,VALID,0.968359,
2010-11-27, 00:38:04,VALID,1001.78,VALID,0,VALID,85.7639,VALID,0,VALID,26.3693,VALID,24,VALID,0.965234,
2010-11-27, 00:39:04,VALID,1001.76,VALID,0,VALID,86.2521,VALID,0,VALID,26.3303,VALID,4,VALID,0.981641,
2010-11-27, 00:40:04,VALID,1001.74,VALID,0,VALID,86.6641,VALID,0,VALID,26.2913,VALID,26,VALID,0.95,
2010-11-27, 00:41:04,VALID,1001.72,VALID,0,VALID,86.8167,VALID,0,VALID,26.2719,VALID,22,VALID,1.11484,
2010-11-27, 00:42:04,VALID,1001.72,VALID,0,VALID,87.0226,VALID,0,VALID,26.192,VALID,20,VALID,0.845312,
2010-11-27, 00:43:04,VALID,1001.7,VALID,0,VALID,87.2973,VALID,0,VALID,26.1725,VALID,31,VALID,0.928906,
2010-11-27, 00:44:04,VALID,1001.7,VALID,0,VALID,87.8313,VALID,0,VALID,26.1355,VALID,30,VALID,0.811719,
2010-11-27, 00:45:04,VALID,1001.7,VALID,0,VALID,87.8542,VALID,0.100563,VALID,26.1745,VALID,31,VALID,0.897656,
2010-11-27, 00:46:04,VALID,1001.71,VALID,0,VALID,87.3812,VALID,0,VALID,26.155,VALID,33,VALID,1.01602,
2010-11-27, 00:47:04,VALID,1001.68,VALID,0,VALID,87.4041,VALID,0.100563,VALID,26.194,VALID,71,VALID,0.846875,
2010-11-27, 00:48:04,VALID,1001.69,VALID,0,VALID,86.7327,VALID,0,VALID,26.2524,VALID,2,VALID,1.68555,
2010-11-27, 00:49:04,VALID,1001.71,VALID,0,VALID,85.947,VALID,0.100563,VALID,26.3693,VALID,24,VALID,1.56562,
2010-11-27, 00:50:04,VALID,1001.71,VALID,0,VALID,85.5274,VALID,0,VALID,26.5056,VALID,29,VALID,0.962891,
2010-11-27, 00:51:04,VALID,1001.7,VALID,0,VALID,85.4358,VALID,0.100563,VALID,26.5056,VALID,29,VALID,1.05664,
2010-11-27, 00:52:04,VALID,1001.7,VALID,0,VALID,85.0696,VALID,0,VALID,26.4861,VALID,26,VALID,0.94375,
2010-11-27, 00:53:04,VALID,1001.69,VALID,0,VALID,85.3748,VALID,0,VALID,26.4472,VALID,10,VALID,0.873828,
2010-11-27, 00:54:04,VALID,1001.67,VALID,0,VALID,85.8402,VALID,0,VALID,26.4277,VALID,31,VALID,0.794922,
2010-11-27, 00:55:04,VALID,1001.69,VALID,0,VALID,85.4129,VALID,0,VALID,26.4297,VALID,36,VALID,1.33438,
2010-11-27, 00:56:04,VALID,1001.69,VALID,0,VALID,85.2222,VALID,0,VALID,26.5271,VALID,39,VALID,0.667969,
2010-11-27, 00:57:04,VALID,1001.7,VALID,0,VALID,84.6272,VALID,0,VALID,26.5251,VALID,27,VALID,1.0875,
2010-11-27, 00:58:04,VALID,1001.7,VALID,0,VALID,85.1459,VALID,0,VALID,26.5661,VALID,82,VALID,0.514063,
2010-11-27, 00:59:04,VALID,1001.7,VALID,0,VALID,85.741,VALID,0,VALID,26.4881,VALID,20,VALID,0.428906,
2010-11-27, 01:00:04,VALID,1001.69,VALID,0,VALID,86.6259,VALID,0,VALID,26.3907,VALID,24,VALID,0.361328,
2010-11-27, 01:01:04,VALID,1001.72,VALID,0,VALID,86.7785,VALID,0,VALID,26.2933,VALID,22,VALID,0.974609,
2010-11-27, 01:02:04,VALID,1001.7,VALID,0,VALID,87.5567,VALID,0,VALID,26.2544,VALID,30,VALID,0.696484,
2010-11-27, 01:03:04,VALID,1001.72,VALID,0,VALID,87.1981,VALID,0,VALID,26.2349,VALID,29,VALID,1.06016,
2010-11-27, 01:04:04,VALID,1001.67,VALID,0,VALID,87.4956,VALID,0,VALID,26.2544,VALID,19,VALID,0.491797,
2010-11-27, 01:05:04,VALID,1001.68,VALID,0,VALID,87.4575,VALID,0,VALID,26.2544,VALID,31,VALID,0.895312,
2010-11-27, 01:06:04,VALID,1001.68,VALID,0,VALID,88.2738,VALID,0,VALID,26.2154,VALID,29,VALID,0.782031,
2010-11-27, 01:07:04,VALID,1001.71,VALID,0,VALID,88.0678,VALID,0,VALID,26.155,VALID,26,VALID,0.770312,
2010-11-27, 01:08:04,VALID,1001.69,VALID,0,VALID,88.4721,VALID,0,VALID,26.1355,VALID,27,VALID,0.402344,
2010-11-27, 01:09:04,VALID,1001.66,VALID,0,VALID,88.8688,VALID,0,VALID,26.1375,VALID,26,VALID,0.291797,
2010-11-27, 01:10:04,VALID,1001.63,VALID,0,VALID,89.3418,VALID,0,VALID,26.0985,VALID,25,VALID,0.293359,
2010-11-27, 01:11:04,VALID,1001.62,VALID,0,VALID,89.6927,VALID,0,VALID,26.0401,VALID,25,VALID,0.136719,
2010-11-27, 01:12:04,VALID,1001.56,VALID,0,VALID,90.1581,VALID,0,VALID,25.9602,VALID,25,VALID,0.432031,
2010-11-27, 01:13:04,VALID,1001.54,VALID,0,VALID,90.0589,VALID,0,VALID,25.9232,VALID,87,VALID,0.600781,
2010-11-27, 01:14:04,VALID,1001.47,VALID,0,VALID,90.509,VALID,0,VALID,25.8648,VALID,358,VALID,0.763281,
2010-11-27, 01:15:04,VALID,1001.5,VALID,0,VALID,90.8066,VALID,0,VALID,25.8259,VALID,56,VALID,0.539453,
2010-11-27, 01:16:04,VALID,1001.48,VALID,0,VALID,90.6845,VALID,0,VALID,25.8648,VALID,28,VALID,0.331641,
2010-11-27, 01:17:04,VALID,1001.51,VALID,0,VALID,90.9057,VALID,0,VALID,25.8239,VALID,357,VALID,0.498828,
2010-11-27, 01:18:04,VALID,1001.49,VALID,0,VALID,90.8066,VALID,0,VALID,25.8239,VALID,7,VALID,0.725391,
2010-11-27, 01:19:04,VALID,1001.51,VALID,0,VALID,91.1041,VALID,0,VALID,25.8259,VALID,5,VALID,0.592578,
2010-11-27, 01:20:04,VALID,1001.51,VALID,0,VALID,90.9897,VALID,0,VALID,25.8453,VALID,5,VALID,0.718359,
2010-11-27, 01:21:04,VALID,1001.53,VALID,0,VALID,90.3793,VALID,0,VALID,25.8629,VALID,42,VALID,0.853516,
2010-11-27, 01:22:04,VALID,1001.55,VALID,0,VALID,90.4022,VALID,0,VALID,25.8648,VALID,32,VALID,0.686719,
2010-11-27, 01:23:04,VALID,1001.58,VALID,0,VALID,90.5243,VALID,0,VALID,25.8239,VALID,15,VALID,0.548047,
2010-11-27, 01:24:04,VALID,1001.56,VALID,0,VALID,90.2191,VALID,0,VALID,25.8239,VALID,27,VALID,0.884375,
2010-11-27, 01:25:04,VALID,1001.58,VALID,0,VALID,89.6927,VALID,0,VALID,25.8648,VALID,30,VALID,0.953125,
2010-11-27, 01:26:04,VALID,1001.56,VALID,0,VALID,89.6775,VALID,0,VALID,25.8843,VALID,16,VALID,0.883594,
2010-11-27, 01:27:04,VALID,1001.55,VALID,0,VALID,89.4791,VALID,0,VALID,25.9232,VALID,38,VALID,0.614062,
2010-11-27, 01:28:04,VALID,1001.53,VALID,0,VALID,89.6012,VALID,0,VALID,25.8823,VALID,26,VALID,0.701563,
2010-11-27, 01:29:04,VALID,1001.48,VALID,0,VALID,89.8758,VALID,0,VALID,25.8648,VALID,28,VALID,0.791016,
2010-11-27, 01:30:04,VALID,1001.49,VALID,0,VALID,89.7843,VALID,0,VALID,25.8434,VALID,27,VALID,0.982422,
2010-11-27, 01:31:04,VALID,1001.54,VALID,0,VALID,89.8377,VALID,0,VALID,25.8239,VALID,21,VALID,1.11055,
2010-11-27, 01:32:04,VALID,1001.54,VALID,0,VALID,89.1435,VALID,0,VALID,25.9018,VALID,36,VALID,0.871094,
2010-11-27, 01:33:04,VALID,1001.57,VALID,0,VALID,89.0061,VALID,0,VALID,25.9427,VALID,26,VALID,0.913672,
2010-11-27, 01:34:04,VALID,1001.6,VALID,0,VALID,88.6476,VALID,0,VALID,25.9427,VALID,21,VALID,1.48008,
2010-11-27, 01:35:04,VALID,1001.62,VALID,0,VALID,88.289,VALID,0,VALID,25.9992,VALID,53,VALID,0.5875,
2010-11-27, 01:36:04,VALID,1001.67,VALID,0,VALID,88.3424,VALID,0,VALID,26.0381,VALID,31,VALID,0.458594,
2010-11-27, 01:37:04,VALID,1001.68,VALID,0,VALID,88.3119,VALID,0,VALID,26.0187,VALID,38,VALID,0.708203,
2010-11-27, 01:38:04,VALID,1001.7,VALID,0,VALID,88.434,VALID,0,VALID,25.9992,VALID,35,VALID,0.813281,
2010-11-27, 01:39:04,VALID,1001.72,VALID,0,VALID,88.3653,VALID,0,VALID,26.0206,VALID,33,VALID,0.701953,
2010-11-27, 01:40:04,VALID,1001.74,VALID,0,VALID,88.434,VALID,0,VALID,26.0206,VALID,34,VALID,0.201172,
2010-11-27, 01:41:04,VALID,1001.71,VALID,0,VALID,88.3348,VALID,0,VALID,25.9992,VALID,25,VALID,0.658594,
2010-11-27, 01:42:04,VALID,1001.69,VALID,0,VALID,88.6094,VALID,0,VALID,25.9992,VALID,32,VALID,0.928906,
2010-11-27, 01:43:04,VALID,1001.68,VALID,0,VALID,89.0977,VALID,0,VALID,25.9817,VALID,32,VALID,0.734375,
2010-11-27, 01:44:04,VALID,1001.62,VALID,0,VALID,89.1816,VALID,0,VALID,25.9427,VALID,31,VALID,0.794531,
2010-11-27, 01:45:04,VALID,1001.64,VALID,0,VALID,89.0595,VALID,0,VALID,25.9427,VALID,33,VALID,0.462891,
2010-11-27, 01:46:04,VALID,1001.61,VALID,0,VALID,89.3113,VALID,0,VALID,25.9213,VALID,12,VALID,0.603125,
2010-11-27, 01:47:04,VALID,1001.62,VALID,0,VALID,89.2884,VALID,0,VALID,25.9232,VALID,57,VALID,0.485156,
2010-11-27, 01:48:04,VALID,1001.62,VALID,0,VALID,89.6012,VALID,0,VALID,25.8629,VALID,35,VALID,0.513281,
2010-11-27, 01:49:04,VALID,1001.57,VALID,0,VALID,89.8911,VALID,0,VALID,25.8668,VALID,37,VALID,0.409375,
2010-11-27, 01:50:04,VALID,1001.56,VALID,0,VALID,90.3412,VALID,0,VALID,25.7655,VALID,37,VALID,0.565625,
2010-11-27, 01:51:04,VALID,1001.54,VALID,0,VALID,90.5243,VALID,0,VALID,25.7285,VALID,39,VALID,0.391016,
2010-11-27, 01:52:04,VALID,1001.56,VALID,0,VALID,91.2719,VALID,0,VALID,25.6506,VALID,38,VALID,0.487109,
2010-11-27, 01:53:04,VALID,1001.59,VALID,0,VALID,91.8288,VALID,0,VALID,25.5707,VALID,38,VALID,0.487891,
2010-11-27, 01:54:04,VALID,1001.59,VALID,0,VALID,92.5231,VALID,0,VALID,25.4948,VALID,38,VALID,0.194531,
2010-11-27, 01:55:04,VALID,1001.61,VALID,0,VALID,93.0189,VALID,0,VALID,25.4363,VALID,38,VALID,0.0328125,
2010-11-27, 01:56:04,VALID,1001.63,VALID,0,VALID,93.2936,VALID,0,VALID,25.3974,VALID,35,VALID,0.368359,
2010-11-27, 01:57:04,VALID,1001.66,VALID,0,VALID,93.7284,VALID,0,VALID,25.3779,VALID,332,VALID,0.30625,
2010-11-27, 01:58:04,VALID,1001.65,VALID,0,VALID,93.9039,VALID,0,VALID,25.3584,VALID,332,VALID,0.00585938,
2010-11-27, 01:59:04,VALID,1001.65,VALID,0,VALID,94.2396,VALID,0,VALID,25.3195,VALID,332,VALID,0.0242187,
2010-11-27, 02:00:04,VALID,1001.64,VALID,0,VALID,94.9338,VALID,0,VALID,25.2806,VALID,332,VALID,0.00234375,
2010-11-27, 02:01:04,VALID,1001.64,VALID,0,VALID,96.101,VALID,0,VALID,25.2416,VALID,332,VALID,0.158984,
2010-11-27, 02:02:04,VALID,1001.6,VALID,0,VALID,96.9478,VALID,0,VALID,25.1832,VALID,332,VALID,0.203516,
2010-11-27, 02:03:04,VALID,1001.61,VALID,0,VALID,98.1532,VALID,0,VALID,25.1248,VALID,332,VALID,0,
2010-11-27, 02:04:04,VALID,1001.62,VALID,0,VALID,100.526,VALID,0,VALID,25.0663,VALID,332,VALID,0,
2010-11-27, 02:05:04,VALID,1001.58,VALID,0,VALID,104,VALID,0,VALID,25.0079,VALID,332,VALID,0.228516,
2010-11-27, 02:06:04,VALID,1001.6,VALID,0,INVALID,127.09,VALID,0,VALID,24.93,VALID,332,VALID,0.257813,
2010-11-27, 02:07:04,VALID,1001.58,VALID,0,INVALID,163.479,VALID,0,VALID,24.8716,VALID,332,VALID,0,
2010-11-27, 02:08:04,VALID,1001.56,VALID,0,INVALID,163.609,VALID,0,VALID,24.8327,VALID,332,VALID,0.293359,
2010-11-27, 02:09:04,VALID,1001.58,VALID,0,INVALID,163.617,VALID,0,VALID,24.7743,VALID,332,VALID,0.139062,
2010-11-27, 02:10:04,VALID,1001.57,VALID,0,INVALID,163.632,VALID,0,VALID,24.7353,VALID,332,VALID,0.206641,
2010-11-27, 02:11:04,VALID,1001.56,VALID,0,INVALID,163.624,VALID,0,VALID,24.6556,VALID,332,VALID,0.06875,
2010-11-27, 02:12:04,VALID,1001.58,VALID,0,INVALID,163.639,VALID,0,VALID,24.638,VALID,332,VALID,0,
2010-11-27, 02:13:04,VALID,1001.57,VALID,0,INVALID,163.578,VALID,0,VALID,24.5777,VALID,332,VALID,0.196094,
2010-11-27, 02:14:04,VALID,1001.56,VALID,0,INVALID,163.624,VALID,0,VALID,24.5388,VALID,2,VALID,0.542188,
2010-11-27, 02:15:04,VALID,1001.56,VALID,0,INVALID,163.632,VALID,0,VALID,24.5193,VALID,23,VALID,0.185156,
2010-11-27, 02:16:04,VALID,1001.56,VALID,0,INVALID,163.624,VALID,0,VALID,24.5212,VALID,358,VALID,0.525,
2010-11-27, 02:17:04,VALID,1001.59,VALID,0,INVALID,163.647,VALID,0,VALID,24.4998,VALID,348,VALID,0.325781,
2010-11-27, 02:18:04,VALID,1001.55,VALID,0,INVALID,163.609,VALID,0,VALID,24.4804,VALID,344,VALID,0.573047,
2010-11-27, 02:19:04,VALID,1001.53,VALID,0,INVALID,163.624,VALID,0,VALID,24.4822,VALID,340,VALID,0.507031,
2010-11-27, 02:20:04,VALID,1001.52,VALID,0,INVALID,163.647,VALID,0,VALID,24.4414,VALID,340,VALID,0.320313,
2010-11-27, 02:21:04,VALID,1001.51,VALID,0,INVALID,163.647,VALID,0,VALID,24.4628,VALID,356,VALID,0.778125,
2010-11-27, 02:22:04,VALID,1001.51,VALID,0,INVALID,163.632,VALID,0,VALID,24.5406,VALID,10,VALID,0.344141,
2010-11-27, 02:23:04,VALID,1001.48,VALID,0,INVALID,163.632,VALID,0,VALID,24.5777,VALID,11,VALID,0.455078,
2010-11-27, 02:24:04,VALID,1001.48,VALID,0,INVALID,163.655,VALID,0,VALID,24.6185,VALID,10,VALID,0.569141,
2010-11-27, 02:25:04,VALID,1001.47,VALID,0,INVALID,163.601,VALID,0,VALID,24.638,VALID,21,VALID,0.598437,
2010-11-27, 02:26:04,VALID,1001.51,VALID,0,INVALID,163.639,VALID,0,VALID,24.7353,VALID,14,VALID,0.607422,
2010-11-27, 02:27:04,VALID,1001.52,VALID,0,INVALID,163.601,VALID,0,VALID,24.8522,VALID,337,VALID,0.596875,
2010-11-27, 02:28:04,VALID,1001.54,VALID,0,INVALID,163.601,VALID,0,VALID,24.8911,VALID,315,VALID,0.203125,
2010-11-27, 02:29:04,VALID,1001.55,VALID,0,INVALID,162.251,VALID,0,VALID,24.9282,VALID,33,VALID,0.594531,
2010-11-27, 02:30:04,VALID,1001.52,VALID,0,INVALID,150.35,VALID,0,VALID,24.9885,VALID,33,VALID,0.351563,
2010-11-27, 02:31:04,VALID,1001.56,VALID,0,INVALID,142.485,VALID,0,VALID,25.006,VALID,29,VALID,0.564844,
2010-11-27, 02:32:04,VALID,1001.55,VALID,0,INVALID,115.784,VALID,0,VALID,25.1034,VALID,9,VALID,1.2582,
2010-11-27, 02:33:04,VALID,1001.57,VALID,0,VALID,104,VALID,0,VALID,25.3,VALID,358,VALID,0.48125,
2010-11-27, 02:34:04,VALID,1001.56,VALID,0,VALID,100.755,VALID,0,VALID,25.337,VALID,4,VALID,0.755469,
2010-11-27, 02:35:04,VALID,1001.54,VALID,0,VALID,98.9313,VALID,0,VALID,25.4149,VALID,359,VALID,0.119141,
2010-11-27, 02:36:04,VALID,1001.54,VALID,0,VALID,98.7177,VALID,0,VALID,25.4928,VALID,302,VALID,0.307813,
2010-11-27, 02:37:04,VALID,1001.57,VALID,0,VALID,98.0159,VALID,0,VALID,25.5142,VALID,302,VALID,0.239063,
2010-11-27, 02:38:04,VALID,1001.55,VALID,0,VALID,98.4431,VALID,0,VALID,25.4539,VALID,302,VALID,0.00664063,
2010-11-27, 02:39:04,VALID,1001.58,VALID,0,VALID,98.8016,VALID,0,VALID,25.4558,VALID,302,VALID,0.230859,
2010-11-27, 02:40:04,VALID,1001.57,VALID,0,VALID,98.0845,VALID,0,VALID,25.4169,VALID,22,VALID,0.836328,
2010-11-27, 02:41:04,VALID,1001.56,VALID,0,VALID,98.4354,VALID,0,VALID,25.3955,VALID,31,VALID,0.387891,
2010-11-27, 02:42:04,VALID,1001.56,VALID,0,VALID,99.2288,VALID,0,VALID,25.3779,VALID,31,VALID,0.291016,
2010-11-27, 02:43:04,VALID,1001.57,VALID,0,VALID,99.801,VALID,0,VALID,25.3176,VALID,31,VALID,0.00820312,
2010-11-27, 02:44:04,VALID,1001.56,VALID,0,VALID,100.915,VALID,0,VALID,25.2592,VALID,31,VALID,0.116016,
2010-11-27, 02:45:04,VALID,1001.55,VALID,0,VALID,102.944,VALID,0,VALID,25.1813,VALID,31,VALID,0.210547,
2010-11-27, 02:46:04,VALID,1001.55,VALID,0,VALID,104,VALID,0,VALID,25.1637,VALID,31,VALID,0.241016,
2010-11-27, 02:47:04,VALID,1001.58,VALID,0,VALID,104,VALID,0,VALID,25.1034,VALID,31,VALID,0.217187,
2010-11-27, 02:48:04,VALID,1001.59,VALID,0,VALID,104,VALID,0,VALID,25.045,VALID,31,VALID,0.245312,
2010-11-27, 02:49:04,VALID,1001.6,VALID,0,INVALID,112.48,VALID,0,VALID,25.0274,VALID,31,VALID,0.0527344,
2010-11-27, 02:50:04,VALID,1001.61,VALID,0,INVALID,117.828,VALID,0,VALID,24.9671,VALID,31,VALID,0,
2010-11-27, 02:51:04,VALID,1001.65,VALID,0,INVALID,124.297,VALID,0.100563,VALID,24.9495,VALID,31,VALID,0.0015625,
2010-11-27, 02:52:04,VALID,1001.65,VALID,0,INVALID,134.39,VALID,0,VALID,24.9106,VALID,31,VALID,0,
2010-11-27, 02:53:04,VALID,1001.67,VALID,0,INVALID,150.098,VALID,0,VALID,24.8716,VALID,31,VALID,0,
2010-11-27, 02:54:04,VALID,1001.7,VALID,0,INVALID,163.556,VALID,0,VALID,24.8522,VALID,21,VALID,0.131641,
2010-11-27, 02:55:04,VALID,1001.68,VALID,0,INVALID,161.999,VALID,0,VALID,24.8308,VALID,311,VALID,0.602734,
2010-11-27, 02:56:04,VALID,1001.7,VALID,0,INVALID,162.007,VALID,0,VALID,24.8697,VALID,308,VALID,0.172266,
2010-11-27, 02:57:04,VALID,1001.73,VALID,0,INVALID,162.426,VALID,0,VALID,24.8503,VALID,308,VALID,0.189453,
2010-11-27, 02:58:04,VALID,1001.73,VALID,0,INVALID,163.578,VALID,0,VALID,24.8113,VALID,308,VALID,0.239453,
2010-11-27, 02:59:04,VALID,1001.74,VALID,0,INVALID,163.617,VALID,0,VALID,24.7919,VALID,308,VALID,0.3375,
2010-11-27, 03:00:04,VALID,1001.72,VALID,0,INVALID,163.609,VALID,0,VALID,24.7548,VALID,331,VALID,1.07227,
2010-11-27, 03:01:04,VALID,1001.68,VALID,0,INVALID,163.632,VALID,0,VALID,24.7529,VALID,321,VALID,0.415234,
2010-11-27, 03:02:04,VALID,1001.7,VALID,0,INVALID,163.632,VALID,0,VALID,24.714,VALID,321,VALID,0.219922,
2010-11-27, 03:03:04,VALID,1001.66,VALID,0,INVALID,163.647,VALID,0,VALID,24.6945,VALID,321,VALID,0.308984,
2010-11-27, 03:04:04,VALID,1001.67,VALID,0,INVALID,163.617,VALID,0,VALID,24.6556,VALID,321,VALID,0.201953,
2010-11-27, 03:05:04,VALID,1001.63,VALID,0,INVALID,163.624,VALID,0,VALID,24.6361,VALID,321,VALID,0,
2010-11-27, 03:06:04,VALID,1001.65,VALID,0,INVALID,163.624,VALID,0,VALID,24.6166,VALID,321,VALID,0,
2010-11-27, 03:07:04,VALID,1001.66,VALID,0,INVALID,163.624,VALID,0,VALID,24.5972,VALID,321,VALID,0,
2010-11-27, 03:08:04,VALID,1001.63,VALID,0,INVALID,163.639,VALID,0,VALID,24.5972,VALID,321,VALID,0.193359,
2010-11-27, 03:09:04,VALID,1001.63,VALID,0,INVALID,163.639,VALID,0,VALID,24.5582,VALID,321,VALID,0.213672,
2010-11-27, 03:10:04,VALID,1001.59,VALID,0,INVALID,163.647,VALID,0,VALID,24.5406,VALID,321,VALID,0.360156,
2010-11-27, 03:11:04,VALID,1001.59,VALID,0,INVALID,163.678,VALID,0,VALID,24.4804,VALID,321,VALID,0.263672,
2010-11-27, 03:12:04,VALID,1001.59,VALID,0,INVALID,163.662,VALID,0,VALID,24.422,VALID,321,VALID,0,
2010-11-27, 03:13:04,VALID,1001.55,VALID,0,INVALID,163.639,VALID,0,VALID,24.383,VALID,321,VALID,0,
2010-11-27, 03:14:04,VALID,1001.54,VALID,0,INVALID,163.639,VALID,0,VALID,24.3459,VALID,321,VALID,0,
2010-11-27, 03:15:04,VALID,1001.52,VALID,0,INVALID,163.655,VALID,0,VALID,24.3052,VALID,321,VALID,0,
2010-11-27, 03:16:04,VALID,1001.5,VALID,0,INVALID,163.655,VALID,0,VALID,24.2857,VALID,321,VALID,0,
2010-11-27, 03:17:04,VALID,1001.45,VALID,0,INVALID,163.647,VALID,0,VALID,24.2468,VALID,321,VALID,0,
2010-11-27, 03:18:04,VALID,1001.45,VALID,0,INVALID,163.639,VALID,0,VALID,24.2681,VALID,321,VALID,0,
2010-11-27, 03:19:04,VALID,1001.44,VALID,0,INVALID,163.662,VALID,0,VALID,24.2078,VALID,321,VALID,0,
2010-11-27, 03:20:04,VALID,1001.42,VALID,0,INVALID,163.67,VALID,0,VALID,24.2255,VALID,321,VALID,0,
2010-11-27, 03:21:04,VALID,1001.43,VALID,0,INVALID,163.647,VALID,0,VALID,24.2468,VALID,321,VALID,0,
2010-11-27, 03:22:04,VALID,1001.43,VALID,0,INVALID,163.662,VALID,0,VALID,24.2468,VALID,321,VALID,0,
2010-11-27, 03:23:04,VALID,1001.43,VALID,0,INVALID,163.639,VALID,0,VALID,24.2468,VALID,321,VALID,0,
2010-11-27, 03:24:04,VALID,1001.45,VALID,0,INVALID,163.67,VALID,0,VALID,24.2468,VALID,321,VALID,0,
2010-11-27, 03:25:04,VALID,1001.44,VALID,0,INVALID,163.662,VALID,0,VALID,24.2273,VALID,321,VALID,0,
2010-11-27, 03:26:04,VALID,1001.44,VALID,0,INVALID,163.655,VALID,0,VALID,24.2291,VALID,321,VALID,0,
2010-11-27, 03:27:04,VALID,1001.45,VALID,0,INVALID,163.67,VALID,0,VALID,24.1884,VALID,321,VALID,0,
2010-11-27, 03:28:04,VALID,1001.48,VALID,0,INVALID,163.693,VALID,0,VALID,24.1707,VALID,321,VALID,0,
2010-11-27, 03:29:04,VALID,1001.5,VALID,0,INVALID,163.678,VALID,0,VALID,24.13,VALID,321,VALID,0,
2010-11-27, 03:30:04,VALID,1001.46,VALID,0,INVALID,163.678,VALID,0,VALID,24.13,VALID,321,VALID,0,
2010-11-27, 03:31:04,VALID,1001.46,VALID,0,INVALID,163.678,VALID,0,VALID,24.1105,VALID,321,VALID,0,
2010-11-27, 03:32:04,VALID,1001.46,VALID,0,INVALID,163.662,VALID,0.100563,VALID,24.091,VALID,321,VALID,0,
2010-11-27, 03:33:04,VALID,1001.45,VALID,0,INVALID,163.67,VALID,0,VALID,24.0521,VALID,321,VALID,0,
2010-11-27, 03:34:04,VALID,1001.48,VALID,0,INVALID,163.655,VALID,0,VALID,24.0326,VALID,321,VALID,0,
2010-11-27, 03:35:04,VALID,1001.44,VALID,0,INVALID,163.701,VALID,0.100563,VALID,24.0345,VALID,321,VALID,0,
2010-11-27, 03:36:04,VALID,1001.45,VALID,0,INVALID,163.716,VALID,0.100563,VALID,23.9937,VALID,321,VALID,0.342578,
2010-11-27, 03:37:04,VALID,1001.43,VALID,0,INVALID,163.685,VALID,0.100563,VALID,23.9955,VALID,321,VALID,0.166016,
2010-11-27, 03:38:04,VALID,1001.45,VALID,0,INVALID,163.67,VALID,0,VALID,23.9548,VALID,321,VALID,0,
2010-11-27, 03:39:04,VALID,1001.45,VALID,0,INVALID,163.67,VALID,0,VALID,23.9353,VALID,321,VALID,0,
2010-11-27, 03:40:04,VALID,1001.46,VALID,0,INVALID,163.693,VALID,0,VALID,23.8964,VALID,321,VALID,0.0382813,
2010-11-27, 03:41:04,VALID,1001.45,VALID,0,INVALID,163.685,VALID,0.100563,VALID,23.8769,VALID,321,VALID,0,
2010-11-27, 03:42:04,VALID,1001.49,VALID,0,INVALID,163.662,VALID,0,VALID,23.8556,VALID,321,VALID,0,
2010-11-27, 03:43:04,VALID,1001.52,VALID,0,INVALID,163.701,VALID,0,VALID,23.8769,VALID,321,VALID,0,
2010-11-27, 03:44:04,VALID,1001.55,VALID,0,INVALID,163.685,VALID,0,VALID,23.8769,VALID,321,VALID,0,
2010-11-27, 03:45:04,VALID,1001.56,VALID,0,INVALID,163.701,VALID,0,VALID,23.8556,VALID,321,VALID,0,
2010-11-27, 03:46:04,VALID,1001.58,VALID,0,INVALID,163.693,VALID,0,VALID,23.8575,VALID,321,VALID,0,